Location: Newark
(34.0111°N, 88.4892°W)
Time: 09:16:26
(UTC+00:00)

STARS - Visible Passes

Search period start: 06 June 2020 00:00
Search period end: 16 June 2020 00:00
Orbit: 623 x 640 km, 98.3° (Epoch: 05 June)

Date Brightness Start Highest point End Pass type
(mag) Time Alt. Az. Time Alt. Az. Time Alt. Az.
06 Jun ? 02:57:38 10° N 03:01:56 61° WNW 03:05:00 18° SSW visible
07 Jun ? 01:43:40 10° NE 01:46:26 16° E 01:48:49 11° SE visible
07 Jun ? 03:18:51 10° N 03:22:47 34° WNW 03:26:14 13° SW visible
08 Jun ? 02:03:43 10° NE 02:07:29 28° E 02:10:02 17° SSE visible
08 Jun ? 03:40:23 10° NNW 03:43:35 20° WNW 03:46:46 10° WSW visible
09 Jun ? 02:24:15 10° NNE 02:28:30 50° E 02:31:15 20° S visible
09 Jun ? 04:02:39 10° NW 04:04:18 12° WNW 04:05:58 10° W visible
10 Jun ? 02:45:04 10° NNE 02:49:26 89° W 02:52:29 20° SSW visible
11 Jun ? 01:32:26 10° ENE 01:33:48 11° E 01:35:11 10° ESE visible
11 Jun ? 03:06:08 10° N 03:10:20 49° WNW 03:13:41 15° SW visible
12 Jun ? 01:51:40 10° NE 01:54:54 20° E 01:57:29 13° SE visible
12 Jun ? 03:27:26 10° NNW 03:31:10 28° WNW 03:34:53 10° SW visible
13 Jun ? 02:11:56 10° NNE 02:15:56 35° E 02:18:42 17° SSE visible
13 Jun ? 03:49:08 10° NNW 03:51:56 17° WNW 03:54:44 10° WSW visible
14 Jun ? 02:32:35 10° NNE 02:36:55 63° ESE 02:39:54 19° S visible
15 Jun ? 02:53:29 10° N 02:57:50 72° WNW 03:01:07 17° SSW visible
